Wind_Speed
26 25 24 25 25 25 25 25 25 24 24 24 24 24 24 24 24 24 24 24 23 23 24 25 26 26 26 27 27 27 28 28 29 29 31 32 32 31 31 32 32 33 34 34
27 26 25 25 25 26 26 25 25 25 25 25 25 25 25 25 25 26 25 25 25 24 24 24 25 26 26 27 29 29 28 29 30 30 31 32 33 32 31 32 31 33 35 35
27 26 26 26 26 25 25 25 25 26 26 26 27 26 26 26 26 27 27 27 27 26 25 25 25 25 26 26 27 28 28 28 30 30 31 33 34 34 32 33 33 33 35 37
28 27 27 27 26 26 25 26 27 28 28 27 27 28 26 26 27 27 27 28 29 28 26 26 25 25 25 26 26 26 27 28 30 31 32 34 34 34 33 33 34 34 36 38
29 28 28 27 26 27 26 26 27 28 29 30 29 30 27 28 28 29 29 29 29 29 29 27 27 27 26 26 27 27 28 28 30 31 32 33 34 35 35 34 35 35 36 38
30 30 29 28 28 27 27 27 28 29 29 30 29 30 29 28 29 30 30 31 30 30 30 30 29 28 28 27 28 29 29 29 30 31 33 33 33 35 36 35 35 36 37 38
32 31 30 30 29 29 28 28 29 30 31 31 29 31 29 28 29 30 31 31 32 32 31 31 31 29 30 29 29 30 30 31 31 31 32 33 34 36 36 36 36 38 39 39
34 33 32 31 30 29 29 28 29 30 31 31 31 32 29 28 29 30 31 32 32 33 34 33 33 31 30 31 32 31 31 31 32 33 34 34 35 36 37 37 36 37 38 38
36 35 33 32 31 31 30 30 30 31 32 32 33 32 31 30 30 30 31 32 32 33 35 34 34 33 32 32 33 33 33 33 33 34 35 36 37 37 37 37 36 36 37 38
37 37 35 34 33 33 33 32 32 32 33 34 34 32 31 31 31 32 32 33 33 33 34 35 35 35 34 34 34 35 35 35 35 36 37 38 38 39 38 38 38 38 38 39
38 39 37 36 35 34 34 34 34 35 35 35 35 34 32 32 33 34 33 33 34 34 34 35 35 36 36 36 36 36 37 38 37 37 38 39 40 40 40 40 40 40 40 40
40 39 39 38 37 37 37 36 36 36 37 37 36 35 33 33 33 34 34 34 34 35 36 36 36 36 37 37 38 38 39 39 39 39 40 40 41 41 41 41 41 42 42 42
41 42 41 41 40 39 39 38 39 39 39 38 37 34 33 34 34 35 35 35 35 36 36 37 37 37 37 38 39 39 39 40 40 40 41 41 42 42 42 43 43 43 42 43
44 44 43 42 41 41 40 40 40 41 41 39 37 35 33 34 36 36 37 37 37 38 38 38 38 38 39 40 41 42 41 41 41 42 42 42 43 43 43 44 44 44 44 44
46 46 44 43 42 43 43 42 42 42 41 41 38 37 35 36 37 37 38 38 38 38 39 39 39 40 41 42 42 43 44 43 43 43 44 44 44 45 45 45 46 46 46 46
48 48 47 46 45 45 46 44 43 44 43 42 41 39 37 38 39 39 39 40 40 40 40 41 41 41 43 43 44 45 45 45 46 46 45 45 45 46 46 46 46 47 47 48
50 49 48 47 46 47 47 43 43 43 43 42 41 40 40 40 41 41 41 42 42 41 41 41 42 43 44 44 45 46 46 46 47 47 47 47 47 47 47 48 48 48 49 49
49 49 49 48 47 48 45 42 42 42 42 43 42 41 42 42 42 42 42 43 43 43 42 42 43 44 45 46 47 48 48 48 49 49 49 49 49 50 50 50 50 50 51 51
49 48 47 47 48 47 45 42 41 42 42 41 42 42 43 43 43 43 43 43 44 44 43 43 44 45 46 47 48 49 49 49 50 50 51 51 51 51 51 52 52 52 52 52
47 47 46 46 47 46 44 43 42 42 43 41 41 42 42 42 43 42 43 44 44 45 44 44 45 45 46 47 48 49 49 50 50 50 51 51 51 51 52 52 53 52 52 53
43 44 44 44 45 45 43 42 41 41 41 40 40 40 41 41 42 43 43 44 45 46 46 46 46 46 47 47 48 48 48 48 48 49 50 50 50 50 51 51 52 52 52 52
38 41 42 43 44 43 41 41 41 40 40 40 40 40 41 41 42 43 44 44 45 46 47 47 47 46 46 47 47 47 48 47 48 49 49 49 49 49 49 50 50 51 51 51
36 38 39 41 41 41 41 41 41 40 40 40 39 39 40 41 41 42 43 44 44 45 46 47 47 46 46 46 46 47 47 48 48 48 49 49 49 49 48 49 49 50 50 50
34 35 36 38 38 39 40 40 40 41 41 41 40 40 39 40 40 41 42 43 43 44 44 45 45 45 45 45 46 46 47 48 48 48 48 48 48 48 47 47 48 49 49 49
32 33 34 35 35 36 37 38 39 39 39 39 39 39 40 41 41 41 41 41 42 42 43 43 44 44 44 44 45 45 46 47 47 47 47 47 48 48 48 47 47 48 48 48
30 31 31 31 32 34 35 36 36 36 37 37 37 38 38 38 39 40 40 41 41 42 42 43 43 44 44 44 44 45 45 45 45 45 46 46 47 47 47 47 47 47 47 47
Wind_Direction
282 282 283 283 281 278 277 274 269 265 264 265 263 257 256 256 253 249 246 245 243 241 241 241 240 241 245 245 243 243 241 238 237 239 239 240 239 241 244 243 243 242 244 247
281 282 282 281 281 277 275 272 268 264 263 263 261 257 257 257 253 251 248 245 243 243 243 241 241 245 248 247 245 243 244 240 238 240 241 241 241 243 246 245 246 246 246 247
280 281 280 280 280 278 275 271 269 266 263 263 261 257 257 256 252 252 251 247 246 244 244 243 244 246 247 246 247 246 245 242 241 242 242 243 243 244 247 248 249 249 248 248
277 277 278 278 279 277 274 272 269 266 264 263 263 259 255 256 253 252 252 248 248 247 246 244 245 246 248 249 250 249 248 248 245 244 244 245 245 245 250 252 250 251 251 250
276 276 275 276 276 274 273 270 268 266 265 264 263 262 257 256 252 251 252 249 249 249 248 248 250 249 250 251 252 252 250 249 248 247 248 248 248 248 251 253 253 253 253 252
274 273 273 273 272 273 272 270 268 266 265 265 263 264 261 257 253 252 251 249 249 250 250 250 253 252 251 252 252 253 253 252 249 248 248 249 251 252 254 255 255 254 255 254
271 272 271 271 270 270 270 269 268 267 267 268 265 264 263 258 256 254 251 249 250 250 251 253 254 253 251 252 253 254 255 254 252 250 251 251 253 253 255 257 257 256 255 255
270 270 270 269 269 269 268 268 269 269 268 267 264 262 261 258 256 254 252 251 252 252 253 254 255 256 255 254 254 255 256 256 255 254 255 255 256 257 258 259 259 257 255 256
270 269 267 267 266 266 266 265 267 267 268 267 264 261 259 257 255 254 252 251 252 253 254 254 255 256 257 257 255 256 257 258 258 257 258 258 258 259 260 259 258 257 257 257
268 268 265 265 264 264 264 265 265 266 267 267 265 263 260 256 254 254 254 251 251 252 253 254 255 256 257 258 258 257 258 259 260 259 259 260 261 261 262 260 258 259 258 257
267 266 265 264 264 265 264 263 263 265 265 266 266 263 261 259 256 255 254 253 252 251 252 253 254 254 256 257 258 259 259 260 262 262 262 261 261 261 263 262 260 259 259 260
266 265 264 264 263 263 263 262 262 263 264 264 265 264 263 261 258 256 255 254 253 251 251 251 253 255 256 257 258 260 261 262 262 263 263 262 261 262 262 262 261 260 262 262
263 263 262 262 262 262 262 261 261 261 262 263 264 265 263 261 258 256 255 254 254 253 253 253 254 255 256 257 258 260 261 262 263 263 264 263 262 261 261 261 260 260 262 263
261 261 260 262 263 262 262 261 260 260 261 263 263 264 263 261 259 258 256 255 254 254 255 255 255 256 256 257 258 260 262 263 263 263 264 264 263 262 262 262 261 262 262 263
258 259 259 260 261 261 260 259 259 259 259 261 261 261 262 261 258 257 255 254 254 253 254 255 255 255 256 258 260 261 263 265 265 265 266 267 266 265 265 264 264 263 263 263
257 258 259 260 260 260 259 258 258 257 258 259 260 260 260 260 259 258 257 256 256 255 255 256 256 257 257 258 260 262 264 265 265 265 266 267 266 265 265 264 264 264 264 264
256 257 258 259 260 260 259 258 258 258 258 259 260 260 260 260 260 259 258 258 256 256 256 257 257 258 260 260 262 263 263 264 265 265 266 267 268 267 267 267 266 265 264 265
256 257 257 259 258 257 259 259 258 259 259 258 259 259 260 261 260 260 259 259 258 258 257 258 258 259 261 262 263 263 264 264 265 266 267 268 269 268 268 267 266 266 265 266
255 256 257 258 259 259 259 260 259 260 260 260 261 260 260 260 260 260 261 261 260 259 259 260 260 261 261 262 263 264 265 266 266 267 268 268 269 268 268 267 266 266 266 267
254 255 257 258 259 259 260 260 261 261 261 261 262 261 261 260 260 259 260 261 261 260 260 260 261 261 261 262 263 264 264 265 266 267 268 268 269 270 269 268 267 266 266 267
254 255 255 256 257 258 259 260 261 261 262 262 262 262 262 261 261 260 260 261 261 261 261 261 262 262 262 263 264 265 265 265 266 266 268 269 270 270 270 269 268 267 267 267
254 255 254 256 256 257 259 260 260 262 262 263 263 263 262 261 262 262 261 262 262 262 261 261 262 263 263 264 265 266 266 266 267 267 268 269 270 271 271 270 269 267 267 267
254 254 254 254 257 258 258 259 261 261 263 263 264 263 262 261 262 262 263 263 263 263 262 262 262 263 263 264 265 266 266 266 268 268 268 269 270 271 272 271 269 268 267 268
256 256 256 255 256 257 258 259 261 263 263 263 263 263 262 262 262 262 263 264 264 264 264 262 262 262 263 264 265 265 267 267 268 269 270 270 270 271 272 272 271 270 269 269
256 256 257 257 257 257 257 260 261 262 263 262 261 262 263 263 263 264 265 265 265 264 263 262 262 263 263 265 266 267 268 269 269 270 270 271 271 272 272 272 272 271 270 270
254 255 255 256 256 258 258 258 259 260 261 262 263 264 264 264 265 266 266 267 266 264 263 263 263 264 265 267 268 268 269 270 270 271 271 272 272 272 273 273 272 271 272 271
Height
5703 5703 5701 5699 5697 5696 5694 5693 5693 5694 5693 5693 5694 5696 5698 5698 5699 5700 5701 5704 5707 5709 5711 5713 5715 5718 5720 5721 5723 5725 5728 5731 5734 5738 5742 5745 5748 5752 5755 5757 5760 5762 5764 5767
5698 5697 5695 5693 5691 5690 5688 5688 5688 5688 5687 5687 5688 5690 5691 5692 5693 5695 5697 5699 5702 5704 5707 5709 5711 5713 5715 5717 5719 5721 5723 5726 5729 5732 5736 5739 5742 5745 5748 5750 5753 5755 5757 5759
5691 5691 5689 5687 5685 5684 5683 5682 5682 5682 5682 5681 5682 5683 5685 5686 5688 5689 5691 5694 5696 5699 5702 5705 5707 5709 5711 5712 5714 5716 5718 5720 5723 5726 5729 5732 5736 5739 5741 5744 5746 5748 5749 5752
5685 5684 5682 5681 5679 5678 5677 5676 5675 5675 5675 5675 5676 5676 5680 5680 5682 5683 5686 5688 5691 5695 5697 5699 5701 5703 5705 5707 5708 5710 5712 5715 5718 5720 5723 5726 5730 5732 5735 5737 5739 5740 5742 5744
5678 5677 5676 5675 5674 5671 5671 5670 5669 5669 5668 5669 5670 5670 5674 5674 5676 5678 5680 5683 5686 5689 5692 5694 5696 5697 5699 5701 5703 5704 5707 5709 5712 5715 5717 5720 5723 5725 5727 5729 5731 5732 5733 5735
5670 5669 5668 5668 5666 5665 5664 5664 5663 5662 5662 5663 5665 5664 5667 5669 5671 5672 5675 5677 5680 5683 5685 5688 5690 5692 5693 5695 5697 5699 5701 5703 5706 5708 5711 5713 5716 5718 5720 5721 5722 5723 5725 5726
5662 5662 5660 5660 5659 5658 5658 5657 5656 5655 5655 5656 5658 5657 5661 5663 5664 5666 5668 5671 5673 5676 5678 5681 5683 5685 5687 5689 5691 5692 5694 5697 5699 5702 5704 5706 5708 5710 5712 5713 5714 5715 5716 5717
5652 5653 5653 5652 5652 5651 5651 5650 5650 5649 5649 5650 5650 5651 5655 5657 5658 5659 5662 5664 5666 5669 5672 5674 5676 5678 5680 5682 5684 5686 5688 5690 5692 5694 5696 5698 5700 5702 5703 5704 5706 5706 5707 5708
5642 5644 5644 5643 5643 5643 5643 5643 5643 5642 5641 5641 5642 5645 5648 5650 5651 5653 5655 5657 5659 5661 5664 5667 5669 5671 5673 5675 5677 5679 5681 5682 5684 5686 5688 5689 5691 5692 5694 5695 5696 5697 5698 5699
5632 5633 5634 5634 5634 5634 5635 5635 5635 5634 5633 5633 5635 5637 5641 5643 5644 5646 5647 5649 5651 5653 5656 5658 5660 5663 5665 5667 5669 5670 5673 5674 5676 5677 5679 5680 5682 5683 5683 5685 5686 5687 5688 5689
5622 5623 5624 5625 5625 5626 5627 5627 5626 5626 5626 5626 5627 5632 5634 5635 5636 5637 5638 5640 5642 5644 5647 5649 5651 5654 5656 5658 5659 5661 5663 5665 5666 5667 5669 5670 5671 5672 5673 5674 5675 5676 5677 5679
5611 5612 5613 5615 5616 5616 5616 5617 5618 5618 5618 5618 5619 5625 5625 5626 5627 5628 5629 5631 5633 5635 5638 5640 5642 5644 5646 5648 5650 5651 5653 5655 5656 5657 5659 5659 5660 5661 5662 5663 5664 5665 5667 5668
5600 5600 5601 5603 5606 5606 5606 5607 5608 5608 5608 5608 5610 5617 5617 5617 5617 5618 5620 5622 5623 5626 5628 5630 5632 5634 5636 5638 5639 5641 5643 5644 5645 5646 5647 5648 5649 5650 5651 5652 5653 5654 5655 5657
5587 5588 5591 5593 5594 5595 5596 5597 5598 5598 5598 5599 5602 5606 5608 5608 5608 5609 5611 5612 5614 5616 5618 5620 5622 5624 5625 5627 5628 5630 5631 5633 5634 5635 5636 5636 5637 5638 5639 5640 5641 5642 5643 5645
5575 5576 5578 5580 5582 5583 5584 5586 5587 5587 5588 5590 5593 5595 5598 5597 5597 5599 5601 5602 5604 5606 5608 5610 5612 5613 5615 5616 5617 5619 5620 5621 5622 5623 5624 5625 5625 5626 5626 5627 5628 5629 5630 5631
5562 5563 5566 5568 5570 5570 5571 5574 5575 5576 5577 5579 5581 5584 5586 5586 5587 5588 5590 5592 5593 5595 5597 5599 5600 5602 5604 5605 5606 5607 5608 5609 5610 5611 5611 5612 5613 5613 5613 5614 5615 5616 5617 5618
5549 5551 5552 5555 5557 5556 5558 5564 5564 5565 5567 5569 5570 5574 5574 5575 5576 5577 5579 5580 5582 5584 5585 5587 5589 5590 5591 5593 5594 5595 5596 5596 5597 5598 5598 5599 5599 5599 5600 5600 5601 5602 5603 5604
5536 5538 5539 5541 5543 5543 5551 5551 5553 5554 5556 5557 5559 5561 5562 5563 5564 5566 5567 5568 5570 5572 5573 5575 5576 5577 5578 5579 5580 5581 5582 5583 5583 5584 5585 5585 5585 5585 5585 5586 5586 5587 5588 5589
5524 5526 5527 5528 5529 5531 5537 5539 5541 5542 5544 5546 5547 5548 5550 5551 5552 5554 5555 5556 5558 5560 5561 5562 5563 5565 5566 5566 5567 5567 5568 5568 5569 5570 5570 5571 5570 5570 5571 5571 5572 5573 5574 5574
5511 5513 5515 5516 5517 5520 5526 5527 5528 5530 5532 5535 5535 5536 5537 5538 5540 5543 5543 5544 5545 5547 5548 5549 5550 5552 5553 5553 5553 5554 5554 5555 5555 5556 5556 5556 5556 5556 5556 5556 5557 5557 5559 5560
5499 5501 5503 5504 5505 5508 5513 5515 5516 5519 5522 5523 5523 5524 5525 5526 5528 5530 5531 5532 5533 5534 5535 5536 5537 5538 5539 5540 5540 5541 5541 5542 5542 5542 5542 5542 5542 5541 5541 5541 5542 5543 5544 5545
5488 5489 5491 5493 5494 5500 5502 5503 5505 5507 5509 5510 5511 5512 5513 5515 5516 5517 5518 5519 5520 5521 5522 5523 5524 5525 5526 5527 5527 5527 5528 5529 5529 5529 5529 5528 5528 5527 5527 5527 5527 5528 5529 5530
5477 5479 5480 5483 5486 5488 5489 5491 5492 5494 5496 5498 5499 5501 5502 5503 5504 5505 5506 5507 5508 5508 5509 5510 5511 5512 5513 5514 5514 5514 5515 5515 5515 5515 5515 5514 5514 5514 5513 5513 5513 5513 5514 5514
5467 5468 5470 5472 5474 5476 5478 5479 5481 5483 5484 5486 5488 5489 5490 5491 5492 5493 5494 5495 5495 5496 5496 5497 5498 5499 5500 5501 5501 5501 5501 5501 5501 5501 5501 5501 5501 5500 5499 5499 5499 5499 5499 5499
5458 5459 5460 5461 5464 5465 5467 5469 5470 5472 5473 5475 5476 5477 5478 5479 5480 5481 5481 5482 5483 5483 5484 5484 5485 5486 5487 5487 5488 5488 5488 5488 5488 5488 5487 5487 5487 5486 5486 5485 5485 5485 5485 5485
5449 5450 5451 5452 5454 5455 5457 5458 5459 5461 5462 5463 5464 5465 5466 5467 5468 5468 5469 5470 5470 5470 5471 5471 5472 5473 5474 5474 5475 5475 5474 5474 5474 5474 5474 5473 5473 5472 5472 5471 5471 5471 5471 5471